Radiation Dose measured at exhaust stack monitor of Miscellaneous Solid Waste Incinerator Building/Incinerator raregas monitor
Date,Time,Incinerator Gas Monitor(cps),Wind Direction,Wind Velocity(m/s)
2021/04/03,00:00,1.5,south,7.6
2021/04/03,00:10,1.5,south,8.3
2021/04/03,00:20,1.5,south,8.6
2021/04/03,00:30,1.4,south,7.9
2021/04/03,00:40,1.4,south,7.6
2021/04/03,00:50,1.4,south,7.5
2021/04/03,01:00,1.4,south,7.3
2021/04/03,01:10,1.5,south,7.9
2021/04/03,01:20,1.4,south,8.1
2021/04/03,01:30,1.4,south,8.7
2021/04/03,01:40,1.5,south,8.5
2021/04/03,01:50,1.5,south,8.6
2021/04/03,02:00,1.5,south,8.7
2021/04/03,02:10,1.4,south,8.2
2021/04/03,02:20,1.5,south,8.6
2021/04/03,02:30,1.4,south,8.2
2021/04/03,02:40,1.5,south,7.2
2021/04/03,02:50,1.6,south-southwest,6.4
2021/04/03,03:00,1.4,south-southwest,5.7
2021/04/03,03:10,1.5,south-southwest,6.3
2021/04/03,03:20,1.5,south-southwest,5.8
2021/04/03,03:30,1.5,south-southwest,5.4
2021/04/03,03:40,1.4,south-southwest,4.8
2021/04/03,03:50,1.4,south-southwest,4.6
2021/04/03,04:00,1.4,south,6.1
2021/04/03,04:10,1.5,south,7.8
2021/04/03,04:20,1.5,south,6.9
2021/04/03,04:30,1.5,south-southwest,5.1
2021/04/03,04:40,1.4,south,4.5
2021/04/03,04:50,1.4,south-southwest,5.9
2021/04/03,05:00,1.6,south,6.7
2021/04/03,05:10,1.4,south-southwest,6.8
2021/04/03,05:20,1.4,south,7.5
2021/04/03,05:30,1.4,south,8.1
2021/04/03,05:40,1.4,south,7.3
2021/04/03,05:50,1.4,south-southwest,6.8
2021/04/03,06:00,1.5,south,7.2
2021/04/03,06:10,1.4,south-southwest,5.9
2021/04/03,06:20,1.4,south-southwest,6.3
2021/04/03,06:30,1.4,south-southwest,5.9
2021/04/03,06:40,1.4,south-southwest,6.1
2021/04/03,06:50,1.4,south,6.1
2021/04/03,07:00,1.4,south,6.1
2021/04/03,07:10,1.5,south-southwest,5.9
2021/04/03,07:20,1.5,south,5.8
2021/04/03,07:30,1.5,south,5.4
2021/04/03,07:40,1.4,south,4.6
2021/04/03,07:50,1.5,south,4.4
2021/04/03,08:00,1.4,south,4.9
2021/04/03,08:10,1.5,south,4.4
2021/04/03,08:20,1.5,south-southeast,4.6
2021/04/03,08:30,1.4,south,5.3
2021/04/03,08:40,1.6,south-southeast,7.1
2021/04/03,08:50,1.4,south-southeast,8.3
2021/04/03,09:00,1.4,south-southeast,7.9
2021/04/03,09:10,1.5,south-southeast,8.7
2021/04/03,09:20,1.6,south-southeast,9.3
2021/04/03,09:30,1.5,south-southeast,9.0
2021/04/03,09:40,1.5,south-southeast,10.0
2021/04/03,09:50,1.3,south-southeast,9.7
2021/04/03,10:00,1.4,south-southeast,10.6
2021/04/03,10:10,1.4,south-southeast,9.0
2021/04/03,10:20,1.5,south-southeast,10.2
2021/04/03,10:30,1.5,south-southeast,10.8
2021/04/03,10:40,1.4,south-southeast,11.3
2021/04/03,10:50,1.5,south-southeast,12.1
2021/04/03,11:00,1.4,south-southeast,11.9
2021/04/03,11:10,1.5,south-southeast,11.6
2021/04/03,11:20,1.5,south-southeast,10.5
2021/04/03,11:30,1.4,south-southeast,11.8
2021/04/03,11:40,1.6,south-southeast,12.1
2021/04/03,11:50,1.5,south-southeast,13.3
2021/04/03,12:00,1.4,south-southeast,12.8
2021/04/03,12:10,1.4,south-southeast,11.7
2021/04/03,12:20,1.5,south-southeast,12.8
2021/04/03,12:30,1.4,south-southeast,14.2
2021/04/03,12:40,1.5,south-southeast,13.1
2021/04/03,12:50,1.5,south-southeast,13.1
2021/04/03,13:00,1.4,south-southeast,13.3
2021/04/03,13:10,1.5,south-southeast,13.8
2021/04/03,13:20,1.5,south-southeast,12.8
2021/04/03,13:30,1.5,south-southeast,13.3
2021/04/03,13:40,1.4,south-southeast,13.5
2021/04/03,13:50,1.4,south-southeast,13.3
2021/04/03,14:00,1.5,south-southeast,12.2
2021/04/03,14:10,1.4,south-southeast,13.6
2021/04/03,14:20,1.5,south-southeast,11.7
2021/04/03,14:30,1.4,south-southeast,13.3
2021/04/03,14:40,1.4,south,11.6
2021/04/03,14:50,1.5,south-southeast,12.8
2021/04/03,15:00,1.5,south-southeast,14.6
2021/04/03,15:10,1.5,south-southeast,14.1
2021/04/03,15:20,1.5,south-southeast,13.9
2021/04/03,15:30,1.4,south,11.3
2021/04/03,15:40,1.4,south-southeast,13.0
2021/04/03,15:50,1.5,south-southeast,13.8
2021/04/03,16:00,1.5,south-southeast,12.4
2021/04/03,16:10,1.4,south-southeast,11.9
2021/04/03,16:20,1.5,south-southeast,13.0
2021/04/03,16:30,1.5,south,11.6
2021/04/03,16:40,1.4,south-southeast,12.0
2021/04/03,16:50,1.5,south,11.4
2021/04/03,17:00,1.5,south,11.4
2021/04/03,17:10,1.5,south,11.8
2021/04/03,17:20,1.5,south,10.0
2021/04/03,17:30,1.5,south,10.5
2021/04/03,17:40,1.5,south,9.4
2021/04/03,17:50,1.5,south,8.2
2021/04/03,18:00,1.4,south,8.8
2021/04/03,18:10,1.5,south,9.3
2021/04/03,18:20,1.5,south,9.1
2021/04/03,18:30,1.5,south,9.6
2021/04/03,18:40,1.5,south,8.5
2021/04/03,18:50,1.4,south,9.1
2021/04/03,19:00,1.4,south,7.8
2021/04/03,19:10,1.4,south-southwest,7.0
2021/04/03,19:20,1.5,south-southwest,7.2
2021/04/03,19:30,1.4,south-southwest,8.0
2021/04/03,19:40,1.5,south,7.0
2021/04/03,19:50,1.3,south,7.5
2021/04/03,20:00,1.5,south,7.4
2021/04/03,20:10,1.4,south,7.7
2021/04/03,20:20,1.5,south,8.4
2021/04/03,20:30,1.4,south-southwest,8.5
2021/04/03,20:40,1.5,south,9.1
2021/04/03,20:50,1.6,south,9.7
2021/04/03,21:00,1.3,south,8.6
2021/04/03,21:10,1.5,south,10.0
2021/04/03,21:20,1.5,south,9.5
2021/04/03,21:30,1.5,south,10.5
2021/04/03,21:40,1.4,south,10.3
2021/04/03,21:50,1.4,south,8.4
2021/04/03,22:00,1.4,south,7.8
2021/04/03,22:10,1.4,south,7.5
2021/04/03,22:20,1.3,south,9.0
2021/04/03,22:30,1.4,south,9.5
2021/04/03,22:40,1.4,south,7.5
2021/04/03,22:50,1.4,south,6.7
2021/04/03,23:00,1.5,south,5.5
2021/04/03,23:10,1.5,south,5.2
2021/04/03,23:20,1.5,south,5.1
2021/04/03,23:30,1.4,south-southwest,3.8
2021/04/03,23:40,1.4,south,5.3
2021/04/03,23:50,1.5,south,6.6
